Tiempo cada hora Alimena

Hoy, 2 Agosto, Lunes

Tiempo Temperatura Precipitaciones Viento Presión Humedad
00:00 +27°C° 0 mm 1 mps 700 mmHg 39%
01:00 +27°C° 0 mm 1 mps 700 mmHg 38%
02:00 +27°C° 0 mm 1 mps 699 mmHg 38%
03:00 +27°C° 0 mm 1 mps 699 mmHg 39%
04:00 +26°C° 0 mm 2 mps 699 mmHg 39%
05:00 +27°C° 0 mm 1 mps 699 mmHg 38%
06:00 +28°C° 0 mm 1 mps 700 mmHg 36%
07:00 +29°C° 0 mm 1 mps 700 mmHg 35%
08:00 +32°C° 0 mm 2 mps 701 mmHg 30%
09:00 +35°C° 0 mm 2 mps 701 mmHg 26%
10:00 +37°C° 0 mm 3 mps 701 mmHg 21%
11:00 +38°C° 0 mm 3 mps 701 mmHg 22%
12:00 +38°C° 0 mm 4 mps 701 mmHg 23%
13:00 +38°C° 0 mm 4 mps 701 mmHg 24%
14:00 +38°C° 0 mm 4 mps 701 mmHg 24%
15:00 +38°C° 0 mm 4 mps 701 mmHg 23%
16:00 +38°C° 0 mm 4 mps 701 mmHg 22%
17:00 +36°C° 0 mm 3 mps 701 mmHg 28%
18:00 +34°C° 0 mm 3 mps 701 mmHg 34%
19:00 +31°C° 0 mm 2 mps 701 mmHg 40%
20:00 +29°C° 0 mm 2 mps 701 mmHg 44%
21:00 +28°C° 0 mm 1 mps 701 mmHg 48%
22:00 +27°C° 0 mm 1 mps 701 mmHg 52%
23:00 +27°C° 0 mm 1 mps 701 mmHg 51%

Mañana, 3 Agosto, Martes

Tiempo Temperatura Precipitaciones Viento Presión Humedad
00:00 +27°C° 0 mm 1 mps 701 mmHg 50%
01:00 +24°C° 0 mm 0 mps 700 mmHg 49%
02:00 +24°C° 0 mm 0 mps 700 mmHg 48%
03:00 +26°C° 0 mm 1 mps 700 mmHg 47%
04:00 +26°C° 0 mm 1 mps 700 mmHg 46%
05:00 +28°C° 0 mm 1 mps 700 mmHg 40%
06:00 +29°C° 0 mm 1 mps 701 mmHg 35%
07:00 +31°C° 0 mm 1 mps 701 mmHg 29%
08:00 +34°C° 0 mm 2 mps 701 mmHg 25%
09:00 +36°C° 0 mm 3 mps 702 mmHg 21%
10:00 +38°C° 0 mm 4 mps 702 mmHg 17%
11:00 +38°C° 0 mm 4 mps 702 mmHg 17%
12:00 +40°C° 0 mm 5 mps 702 mmHg 17%
13:00 +40°C° 0 mm 5 mps 702 mmHg 17%
14:00 +40°C° 0 mm 5 mps 702 mmHg 18%
15:00 +38°C° 0 mm 4 mps 702 mmHg 20%
16:00 +37°C° 0 mm 4 mps 702 mmHg 21%
17:00 +36°C° 0 mm 3 mps 701 mmHg 23%
18:00 +34°C° 0 mm 2 mps 701 mmHg 25%
19:00 +32°C° 0 mm 1 mps 701 mmHg 26%
20:00 +31°C° 0 mm 2 mps 701 mmHg 29%
21:00 +30°C° 0 mm 2 mps 701 mmHg 31%
22:00 +29°C° 0 mm 2 mps 701 mmHg 33%
23:00 +28°C° 0 mm 2 mps 701 mmHg 35%

Pasado mañana, 4 Agosto, Miércoles

Tiempo Temperatura Precipitaciones Viento Presión Humedad
00:00 +27°C° 0 mm 2 mps 701 mmHg 37%
01:00 +27°C° 0 mm 1 mps 701 mmHg 39%
02:00 +26°C° 0 mm 1 mps 700 mmHg 40%
03:00 +26°C° 0 mm 1 mps 700 mmHg 41%
04:00 +25°C° 0 mm 1 mps 700 mmHg 42%
05:00 +27°C° 0 mm 1 mps 700 mmHg 38%
06:00 +28°C° 0 mm 1 mps 701 mmHg 33%
07:00 +30°C° 0 mm 1 mps 701 mmHg 29%
08:00 +32°C° 0 mm 2 mps 701 mmHg 24%
09:00 +36°C° 0 mm 3 mps 702 mmHg 19%
10:00 +38°C° 0 mm 4 mps 702 mmHg 15%
11:00 +40°C° 0 mm 4 mps 702 mmHg 14%
12:00 +41°C° 0 mm 5 mps 702 mmHg 13%
13:00 +41°C° 0 mm 6 mps 702 mmHg 12%
14:00 +41°C° 0 mm 5 mps 701 mmHg 13%
15:00 +40°C° 0 mm 5 mps 701 mmHg 13%
16:00 +40°C° 0 mm 5 mps 701 mmHg 14%
17:00 +37°C° 0 mm 4 mps 701 mmHg 16%
18:00 +35°C° 0 mm 3 mps 701 mmHg 19%
19:00 +32°C° 0 mm 2 mps 700 mmHg 22%
20:00 +31°C° 0 mm 2 mps 700 mmHg 23%
21:00 +30°C° 0 mm 2 mps 700 mmHg 25%
22:00 +29°C° 0 mm 1 mps 700 mmHg 26%
23:00 +28°C° 0 mm 1 mps 700 mmHg 26%

5 Agosto, Jueves

Tiempo Temperatura Precipitaciones Viento Presión Humedad
00:00 +28°C° 0 mm 1 mps 699 mmHg 26%
01:00 +28°C° 0 mm 1 mps 699 mmHg 26%
02:00 +28°C° 0 mm 1 mps 699 mmHg 27%
03:00 +27°C° 0 mm 1 mps 699 mmHg 27%
04:00 +27°C° 0 mm 1 mps 699 mmHg 28%
05:00 +27°C° 0 mm 2 mps 699 mmHg 38%
06:00 +27°C° 0 mm 2 mps 700 mmHg 49%
07:00 +27°C° 0 mm 3 mps 700 mmHg 59%
08:00 +29°C° 0 mm 3 mps 700 mmHg 48%
09:00 +33°C° 0 mm 3 mps 700 mmHg 36%
10:00 +35°C° 0 mm 3 mps 700 mmHg 25%
11:00 +36°C° 0 mm 3 mps 700 mmHg 24%
12:00 +37°C° 0 mm 4 mps 699 mmHg 23%
13:00 +39°C° 0 mm 5 mps 699 mmHg 22%
14:00 +36°C° 0 mm 5 mps 699 mmHg 28%
15:00 +35°C° 0 mm 5 mps 699 mmHg 34%
16:00 +33°C° 0 mm 5 mps 699 mmHg 40%
17:00 +32°C° 0 mm 4 mps 698 mmHg 47%
18:00 +29°C° 0 mm 3 mps 698 mmHg 55%
19:00 +27°C° 0 mm 3 mps 698 mmHg 62%
20:00 +25°C° 0 mm 2 mps 698 mmHg 68%
21:00 +24°C° 0 mm 2 mps 698 mmHg 75%
22:00 +23°C° 0 mm 2 mps 698 mmHg 81%
23:00 +21°C° 0 mm 2 mps 698 mmHg 80%

6 Agosto, Viernes

Tiempo Temperatura Precipitaciones Viento Presión Humedad
00:00 +21°C° 0 mm 2 mps 698 mmHg 78%
01:00 +20°C° 0 mm 2 mps 697 mmHg 76%
02:00 +20°C° 0 mm 2 mps 697 mmHg 71%
03:00 +20°C° 0 mm 2 mps 697 mmHg 65%
04:00 +20°C° 0 mm 2 mps 697 mmHg 60%
05:00 +21°C° 0 mm 2 mps 697 mmHg 53%
06:00 +24°C° 0 mm 1 mps 697 mmHg 47%
07:00 +25°C° 0 mm 1 mps 698 mmHg 40%
08:00 +27°C° 0 mm 2 mps 698 mmHg 35%
09:00 +29°C° 0 mm 2 mps 698 mmHg 29%
10:00 +31°C° 0 mm 3 mps 699 mmHg 23%
11:00 +33°C° 0 mm 3 mps 699 mmHg 22%
12:00 +34°C° 0 mm 4 mps 699 mmHg 22%
13:00 +35°C° 0 mm 4 mps 699 mmHg 21%
14:00 +35°C° 0 mm 4 mps 698 mmHg 22%
15:00 +34°C° 0 mm 4 mps 698 mmHg 24%
16:00 +34°C° 0 mm 4 mps 698 mmHg 25%
17:00 +32°C° 0 mm 4 mps 698 mmHg 30%
18:00 +28°C° 0 mm 3 mps 698 mmHg 35%
19:00 +26°C° 0 mm 2 mps 698 mmHg 40%
20:00 +25°C° 0 mm 2 mps 698 mmHg 42%
21:00 +24°C° 0 mm 2 mps 698 mmHg 45%
22:00 +23°C° 0 mm 2 mps 698 mmHg 47%
23:00 +23°C° 0 mm 1 mps 698 mmHg 44%

7 Agosto, Sábado

Tiempo Temperatura Precipitaciones Viento Presión Humedad
00:00 +23°C° 0 mm 1 mps 698 mmHg 42%
01:00 +23°C° 0 mm 1 mps 697 mmHg 39%
02:00 +23°C° 0 mm 1 mps 697 mmHg 37%
03:00 +23°C° 0 mm 1 mps 697 mmHg 35%
04:00 +22°C° 0 mm 1 mps 697 mmHg 33%
05:00 +24°C° 0 mm 1 mps 698 mmHg 30%
06:00 +25°C° 0 mm 1 mps 698 mmHg 26%
07:00 +27°C° 0 mm 1 mps 699 mmHg 22%
08:00 +29°C° 0 mm 1 mps 699 mmHg 20%
09:00 +31°C° 0 mm 1 mps 699 mmHg 17%
10:00 +35°C° 0 mm 2 mps 700 mmHg 15%
11:00 +36°C° 0 mm 2 mps 700 mmHg 15%
12:00 +37°C° 0 mm 3 mps 700 mmHg 15%
13:00 +38°C° 0 mm 4 mps 700 mmHg 16%
14:00 +37°C° 0 mm 4 mps 700 mmHg 18%
15:00 +37°C° 0 mm 4 mps 699 mmHg 20%
16:00 +37°C° 0 mm 3 mps 699 mmHg 22%
17:00 +34°C° 0 mm 3 mps 699 mmHg 26%
18:00 +31°C° 0 mm 2 mps 699 mmHg 30%
19:00 +29°C° 0 mm 1 mps 699 mmHg 35%
20:00 +28°C° 0 mm 1 mps 699 mmHg 37%
21:00 +27°C° 0 mm 1 mps 700 mmHg 40%
22:00 +27°C° 0 mm 1 mps 700 mmHg 43%
23:00 +26°C° 0 mm 1 mps 700 mmHg 44%
Mostrar más

Necesitamos Su Consentimiento

Meteoprog y nuestros Proveedores de Servicios pueden almacenar y acceder a sus datos personales como cookies, identificadores de dispositivo u otras tecnologías similares de su dispositivo y procesar dichos datos para personalizar contenido y anuncios, además de ofrecer funciones de redes sociales y analizar el tráfico.

  • Almacenar y/o acceder a información en su dispositivo

    Se puede almacenar o acceder a cookies, identificadores de dispositivo u otra información de su dispositivo para los fines anteriormente indicados.

  • Anuncios y contenido personalizados, medición de anuncios y contenido, percepciones del público, y desarrollo de productos

    Los anuncios y el contenido pueden personalizarse en base a su perfil. Se pueden añadir más datos para personalizar mejor los anuncios y contenidos. Se puede medir el rendimiento de los anuncios y contenidos. Se puede obtener la percepción sobre el público que ha visto los anuncios y contenidos. Dichos datos pueden usarse para desarrollar o mejorar la experiencia del usuario, sistemas y software.

Al hacer clic en ‘Estoy De Acuerdo’ usted permitirá el uso de las cookies, identificadores de dispositivo, balizas web u otras tecnologías similares indicadas. Su configuración puede cambiarse desde el navegador de su dispositivo.

Para ciertos fines, los intereses legítimos pueden ser considerados por encima del consentimiento. Puede leer más sobre ello en nuestra Política de Privacidad y Cookies.